User: anonymous   Login
Location: Unspecified
(0.0000°N, 0.0000°E)
Time: 12:48:08
(UTC+00:00)
Language:

TDRS 3 - Orbit

View from above orbital plane
View from above orbital plane
View from above satellite
View from above satellite

Ground track
Ground track

The orbit data is extracted from the following two-line orbital elements,

1 19548U 88091B   18200.44626186 -.00000319 +00000-0 +00000-0 0  9995
2 19548 014.4238 003.9743 0034770 316.9604 074.5085 01.00279631096437
Epoch (UTC): 19 July 2018 10:42:37
Eccentricity: 0.0034770
inclination: 14.4238°
perigee height: 35637 km
apogee height: 35930 km
right ascension of ascending node: 3.9743°
argument of perigee: 316.9604°
revolutions per day: 1.00279631
mean anomaly at epoch: 74.5085°
orbit number at epoch: 9643

The dashed part of the orbit path shows where the satellite is in the earth's shadow,  

DLR